Location: Narragansett
(41.4496°N, 71.4488°W)
Time: 10:36:36
(UTC+00:00)

X-37B - Pass Details

Date: 28 September 2021
Orbit: 385 x 389 km, 45.0° (Epoch: 17 October)

Event Time Altitude Azimuth Distance (km) Brightness Sun altitude
Exits shadow 10:07:34 - 292° (WNW) 1,622 3.2 -6.9°
Reaches altitude 10° 10:08:05 10° 294° (WNW) 1,414 2.9 -6.8°
Maximum altitude 10:11:12 51° 11° (NNE) 496 1.2 -6.2°
Drops below altitude 10° 10:14:19 10° 89° (E) 1,413 5.3 -5.6°
Sets 10:16:25 0° 95° (E) 2,268 7.1 -5.2°
